"Sample Date","Sample Time","Sample Value","Units","Flow Rate","Sample Interval","Number Channels","Micron Size 0","Counts/Channel 0","Micron Size 1","Counts/Channel 1","Micron Size 2","Counts/Channel 2","Micron Size 3","Counts/Channel 3","Micron Size 4","Counts/Channel 4","Micron Size 5","Counts/Channel 5","Micron Size 6","Counts/Channel 6","Micron Size 7","Counts/Channel 7","Micron Size 8","Counts/Channel 8","Micron Size 9","Counts/Channel 9","Micron Size 10","Counts/Channel 10","Micron Size 11","Counts/Channel 11","Micron Size 12","Counts/Channel 12","Micron Size 13","Counts/Channel 13","Micron Size 14","Counts/Channel 14","Micron Size 15","Counts/Channel 15","Micron Size 16","Counts/Channel 16","Micron Size 17","Counts/Channel 17","Micron Size 18","Counts/Channel 18","Micron Size 19","Counts/Channel 19","Micron Size 20","Counts/Channel 20","Micron Size 21","Counts/Channel 21","Micron Size 22","Counts/Channel 22","Micron Size 23","Counts/Channel 23","Micron Size 24","Counts/Channel 24","Micron Size 25","Counts/Channel 25","Micron Size 26","Counts/Channel 26","Micron Size 27","Counts/Channel 27","Micron Size 28","Counts/Channel 28","Micron Size 29","Counts/Channel 29","Micron Size 30","Counts/Channel 30","Micron Size 31","Counts/Channel 31"
"04/02/08","12:00:01",18256.000,"cc",28327.984,6.00,6,0.100,16500.000,0.200,654.000,0.300,412.000,0.500,504.000,1.000,186.000,5.000,0
"04/02/08","12:00:07",18940.000,"cc",28306.758,6.00,6,0.100,17129.000,0.200,659.000,0.300,463.000,0.500,494.000,1.000,195.000,5.000,0
"04/02/08","12:00:13",18766.000,"cc",28375.898,6.00,6,0.100,17073.000,0.200,607.000,0.300,408.000,0.500,493.000,1.000,185.000,5.000,0
"04/02/08","12:00:19",18953.000,"cc",28329.604,6.00,6,0.100,17195.000,0.200,637.000,0.300,443.000,0.500,475.000,1.000,203.000,5.000,0
"04/02/08","12:00:25",18730.000,"cc",28265.631,6.00,6,0.100,17013.000,0.200,612.000,0.300,375.000,0.500,530.000,1.000,200.000,5.000,0
"04/02/08","12:00:31",18639.000,"cc",28292.311,6.00,6,0.100,16791.000,0.200,675.000,0.300,471.000,0.500,523.000,1.000,179.000,5.000,0
"04/02/08","12:00:37",18874.000,"cc",28286.234,6.00,6,0.100,16970.000,0.200,692.000,0.300,447.000,0.500,551.000,1.000,214.000,5.000,0
"04/02/08","12:00:43",18704.000,"cc",28396.305,6.00,6,0.100,16805.000,0.200,677.000,0.300,485.000,0.500,532.000,1.000,205.000,5.000,0
"04/02/08","12:00:49",18276.000,"cc",28285.623,6.00,6,0.100,16510.000,0.200,649.000,0.300,410.000,0.500,490.000,1.000,217.000,5.000,0
"04/02/08","12:00:55",18225.000,"cc",28316.561,6.00,6,0.100,16550.000,0.200,575.000,0.300,412.000,0.500,507.000,1.000,181.000,5.000,0
"04/02/08","12:01:01",17980.000,"cc",28304.576,6.00,6,0.100,16250.000,0.200,602.000,0.300,406.000,0.500,548.000,1.000,174.000,5.000,0
"04/02/08","12:01:07",18304.000,"cc",28324.773,6.00,6,0.100,16663.000,0.200,606.000,0.300,367.000,0.500,495.000,1.000,173.000,5.000,0
"04/02/08","12:01:13",18150.000,"cc",28333.315,6.00,6,0.100,16610.000,0.200,572.000,0.300,362.000,0.500,436.000,1.000,170.000,5.000,0
"04/02/08","12:01:19",18170.000,"cc",28400.977,6.00,6,0.100,16635.000,0.200,561.000,0.300,353.000,0.500,452.000,1.000,169.000,5.000,0
"04/02/08","12:01:25",18218.000,"cc",28313.842,6.00,6,0.100,16687.000,0.200,591.000,0.300,349.000,0.500,433.000,1.000,158.000,5.000,0
"04/02/08","12:01:31",18396.000,"cc",28284.676,6.00,6,0.100,16742.000,0.200,608.000,0.300,348.000,0.500,518.000,1.000,180.000,5.000,0
"04/02/08","12:01:37",18484.000,"cc",28261.609,6.00,6,0.100,16750.000,0.200,641.000,0.300,390.000,0.500,493.000,1.000,210.000,5.000,0
"04/02/08","12:01:43",18698.000,"cc",28299.352,6.00,6,0.100,16734.000,0.200,727.000,0.300,472.000,0.500,557.000,1.000,208.000,5.000,0
"04/02/08","12:01:49",18604.000,"cc",28261.082,6.00,6,0.100,16935.000,0.200,649.000,0.300,371.000,0.500,472.000,1.000,177.000,5.000,0
"04/02/08","12:01:55",17871.000,"cc",28369.340,6.00,6,0.100,16382.000,0.200,582.000,0.300,305.000,0.500,436.000,1.000,166.000,5.000,0
"04/02/08","12:02:01",18124.000,"cc",28320.820,6.00,6,0.100,16569.000,0.200,569.000,0.300,349.000,0.500,457.000,1.000,180.000,5.000,0
"04/02/08","12:02:07",18262.000,"cc",28335.027,6.00,6,0.100,16698.000,0.200,599.000,0.300,363.000,0.500,433.000,1.000,169.000,5.000,0
"04/02/08","12:02:13",18343.000,"cc",28356.141,6.00,6,0.100,16876.000,0.200,573.000,0.300,332.000,0.500,400.000,1.000,162.000,5.000,0
"04/02/08","12:02:19",18773.000,"cc",28318.758,6.00,6,0.100,17182.000,0.200,581.000,0.300,374.000,0.500,471.000,1.000,165.000,5.000,0
"04/02/08","12:02:25",18153.000,"cc",28323.641,6.00,6,0.100,16621.000,0.200,583.000,0.300,388.000,0.500,422.000,1.000,139.000,5.000,0
"04/02/08","12:02:31",18531.000,"cc",28221.039,6.00,6,0.100,16880.000,0.200,608.000,0.300,394.000,0.500,458.000,1.000,191.000,5.000,0
"04/02/08","12:02:37",18223.000,"cc",28266.354,6.00,6,0.100,16728.000,0.200,558.000,0.300,334.000,0.500,430.000,1.000,173.000,5.000,0
"04/02/08","12:02:43",18186.000,"cc",28320.514,6.00,6,0.100,16609.000,0.200,574.000,0.300,363.000,0.500,471.000,1.000,169.000,5.000,0
"04/02/08","12:02:49",18315.000,"cc",28290.145,6.00,6,0.100,16675.000,0.200,603.000,0.300,378.000,0.500,459.000,1.000,200.000,5.000,0
"04/02/08","12:02:55",18065.000,"cc",28280.688,6.00,6,0.100,16440.000,0.200,587.000,0.300,391.000,0.500,445.000,1.000,202.000,5.000,0
"04/02/08","12:03:01",18132.000,"cc",28427.107,6.00,6,0.100,16462.000,0.200,618.000,0.300,375.000,0.500,487.000,1.000,190.000,5.000,0
"04/02/08","12:03:07",18005.000,"cc",28323.736,6.00,6,0.100,16313.000,0.200,635.000,0.300,394.000,0.500,495.000,1.000,168.000,5.000,0
"04/02/08","12:03:13",18541.000,"cc",28339.342,6.00,6,0.100,16852.000,0.200,627.000,0.300,397.000,0.500,481.000,1.000,184.000,5.000,0
"04/02/08","12:03:19",18433.000,"cc",28275.426,6.00,6,0.100,16859.000,0.200,643.000,0.300,334.000,0.500,448.000,1.000,149.000,5.000,0
"04/02/08","12:03:25",18305.000,"cc",28198.570,6.00,6,0.100,16571.000,0.200,639.000,0.300,421.000,0.500,494.000,1.000,180.000,5.000,0
"04/02/08","12:03:31",18573.000,"cc",28270.277,6.00,6,0.100,16768.000,0.200,646.000,0.300,428.000,0.500,537.000,1.000,194.000,5.000,0
"04/02/08","12:03:37",18439.000,"cc",28381.588,6.00,6,0.100,16604.000,0.200,696.000,0.300,409.000,0.500,535.000,1.000,195.000,5.000,0
"04/02/08","12:03:43",18890.000,"cc",28476.455,6.00,6,0.100,16998.000,0.200,689.000,0.300,396.000,0.500,574.000,1.000,233.000,5.000,0
"04/02/08","12:03:49",18497.000,"cc",28284.861,6.00,6,0.100,16767.000,0.200,626.000,0.300,414.000,0.500,504.000,1.000,186.000,5.000,0
"04/02/08","12:03:55",18858.000,"cc",28247.857,6.00,6,0.100,16907.000,0.200,723.000,0.300,470.000,0.500,535.000,1.000,223.000,5.000,0
"04/02/08","12:04:01",18731.000,"cc",28303.074,6.00,6,0.100,16880.000,0.200,670.000,0.300,471.000,0.500,512.000,1.000,198.000,5.000,0
"04/02/08","12:04:07",18551.000,"cc",28336.150,6.00,6,0.100,16982.000,0.200,624.000,0.300,341.000,0.500,469.000,1.000,135.000,5.000,0
"04/02/08","12:04:13",18223.000,"cc",28328.002,6.00,6,0.100,16639.000,0.200,605.000,0.300,367.000,0.500,443.000,1.000,169.000,5.000,0
"04/02/08","12:04:19",18371.000,"cc",28298.580,6.00,6,0.100,16808.000,0.200,590.000,0.300,342.000,0.500,472.000,1.000,159.000,5.000,0
"04/02/08","12:04:25",18610.000,"cc",28397.299,6.00,6,0.100,17027.000,0.200,603.000,0.300,352.000,0.500,458.000,1.000,170.000,5.000,0
"04/02/08","12:04:31",18482.000,"cc",28271.902,6.00,6,0.100,16872.000,0.200,582.000,0.300,392.000,0.500,467.000,1.000,169.000,5.000,0
"04/02/08","12:04:37",18629.000,"cc",28304.393,6.00,6,0.100,16931.000,0.200,645.000,0.300,394.000,0.500,472.000,1.000,187.000,5.000,0
"04/02/08","12:04:43",18395.000,"cc",28348.199,6.00,6,0.100,16781.000,0.200,595.000,0.300,380.000,0.500,450.000,1.000,189.000,5.000,0
"04/02/08","12:04:49",18648.000,"cc",28292.881,6.00,6,0.100,16963.000,0.200,615.000,0.300,410.000,0.500,474.000,1.000,186.000,5.000,0
"04/02/08","12:04:55",19006.000,"cc",28301.397,6.00,6,0.100,17332.000,0.200,639.000,0.300,393.000,0.500,444.000,1.000,198.000,5.000,0
"04/02/08","12:05:01",18749.000,"cc",28308.992,6.00,6,0.100,16816.000,0.200,697.000,0.300,467.000,0.500,558.000,1.000,211.000,5.000,0
"04/02/08","12:05:07",18331.000,"cc",28330.498,6.00,6,0.100,16669.000,0.200,604.000,0.300,402.000,0.500,473.000,1.000,183.000,5.000,0
"04/02/08","12:05:13",18373.000,"cc",28256.006,6.00,6,0.100,16826.000,0.200,595.000,0.300,339.000,0.500,467.000,1.000,146.000,5.000,0
"04/02/08","12:05:19",18447.000,"cc",28318.258,6.00,6,0.100,16756.000,0.200,639.000,0.300,401.000,0.500,485.000,1.000,166.000,5.000,0
"04/02/08","12:05:25",18064.000,"cc",28287.115,6.00,6,0.100,16477.000,0.200,603.000,0.300,378.000,0.500,435.000,1.000,171.000,5.000,0
"04/02/08","12:05:31",18508.000,"cc",28333.297,6.00,6,0.100,16841.000,0.200,610.000,0.300,387.000,0.500,466.000,1.000,204.000,5.000,0
"04/02/08","12:05:37",18567.000,"cc",28356.816,6.00,6,0.100,16936.000,0.200,632.000,0.300,380.000,0.500,455.000,1.000,164.000,5.000,0
"04/02/08","12:05:43",18238.000,"cc",28316.150,6.00,6,0.100,16483.000,0.200,657.000,0.300,406.000,0.500,513.000,1.000,179.000,5.000,0
"04/02/08","12:05:49",18455.000,"cc",28353.184,6.00,6,0.100,16820.000,0.200,627.000,0.300,378.000,0.500,449.000,1.000,181.000,5.000,0
"04/02/08","12:05:55",18404.000,"cc",28357.555,6.00,6,0.100,16784.000,0.200,562.000,0.300,400.000,0.500,486.000,1.000,172.000,5.000,0
"04/02/08","12:06:01",18481.000,"cc",28309.430,6.00,6,0.100,16693.000,0.200,617.000,0.300,432.000,0.500,535.000,1.000,204.000,5.000,0
"04/02/08","12:06:07",18734.000,"cc",28355.574,6.00,6,0.100,16935.000,0.200,664.000,0.300,403.000,0.500,523.000,1.000,209.000,5.000,0
"04/02/08","12:06:13",18667.000,"cc",28281.148,6.00,6,0.100,16823.000,0.200,700.000,0.300,422.000,0.500,513.000,1.000,209.000,5.000,0
"04/02/08","12:06:19",18144.000,"cc",28242.481,6.00,6,0.100,16463.000,0.200,614.000,0.300,400.000,0.500,491.000,1.000,176.000,5.000,0
"04/02/08","12:06:25",17720.000,"cc",28273.197,6.00,6,0.100,16194.000,0.200,579.000,0.300,335.000,0.500,436.000,1.000,176.000,5.000,0
"04/02/08","12:06:31",17981.000,"cc",28386.039,6.00,6,0.100,16437.000,0.200,559.000,0.300,341.000,0.500,435.000,1.000,209.000,5.000,0
"04/02/08","12:06:37",17871.000,"cc",28326.234,6.00,6,0.100,16246.000,0.200,638.000,0.300,353.000,0.500,457.000,1.000,177.000,5.000,0
"04/02/08","12:06:43",17851.000,"cc",28307.201,6.00,6,0.100,16195.000,0.200,622.000,0.300,382.000,0.500,492.000,1.000,160.000,5.000,0
"04/02/08","12:06:49",17889.000,"cc",28398.188,6.00,6,0.100,16207.000,0.200,599.000,0.300,411.000,0.500,481.000,1.000,191.000,5.000,0
"04/02/08","12:06:55",17823.000,"cc",28302.734,6.00,6,0.100,16091.000,0.200,645.000,0.300,407.000,0.500,484.000,1.000,196.000,5.000,0
"04/02/08","12:07:01",17851.000,"cc",28332.586,6.00,6,0.100,16161.000,0.200,618.000,0.300,413.000,0.500,486.000,1.000,173.000,5.000,0
"04/02/08","12:07:07",17986.000,"cc",28375.000,6.00,6,0.100,16310.000,0.200,566.000,0.300,413.000,0.500,478.000,1.000,219.000,5.000,0
"04/02/08","12:07:13",17763.000,"cc",28276.049,6.00,6,0.100,16042.000,0.200,647.000,0.300,372.000,0.500,512.000,1.000,190.000,5.000,0
"04/02/08","12:07:19",17996.000,"cc",28288.670,6.00,6,0.100,16352.000,0.200,623.000,0.300,380.000,0.500,465.000,1.000,176.000,5.000,0
"04/02/08","12:07:25",18468.000,"cc",28300.356,6.00,6,0.100,16805.000,0.200,612.000,0.300,378.000,0.500,490.000,1.000,183.000,5.000,0
"04/02/08","12:07:31",18084.000,"cc",28302.967,6.00,6,0.100,16550.000,0.200,577.000,0.300,354.000,0.500,429.000,1.000,174.000,5.000,0
"04/02/08","12:07:37",18409.000,"cc",28314.297,6.00,6,0.100,16998.000,0.200,554.000,0.300,318.000,0.500,392.000,1.000,147.000,5.000,0
"04/02/08","12:07:43",17965.000,"cc",28288.865,6.00,6,0.100,16476.000,0.200,560.000,0.300,327.000,0.500,436.000,1.000,166.000,5.000,0
"04/02/08","12:07:49",18181.000,"cc",28339.051,6.00,6,0.100,16568.000,0.200,669.000,0.300,343.000,0.500,428.000,1.000,173.000,5.000,0
"04/02/08","12:07:55",18029.000,"cc",28290.816,6.00,6,0.100,16285.000,0.200,657.000,0.300,385.000,0.500,497.000,1.000,205.000,5.000,0
"04/02/08","12:08:01",18552.000,"cc",28329.029,6.00,6,0.100,16736.000,0.200,679.000,0.300,421.000,0.500,519.000,1.000,197.000,5.000,0
"04/02/08","12:08:07",18501.000,"cc",28357.525,6.00,6,0.100,16787.000,0.200,638.000,0.300,401.000,0.500,467.000,1.000,208.000,5.000,0
"04/02/08","12:08:13",18285.000,"cc",28339.791,6.00,6,0.100,16626.000,0.200,627.000,0.300,371.000,0.500,472.000,1.000,189.000,5.000,0
"04/02/08","12:08:19",18099.000,"cc",28327.438,6.00,6,0.100,16551.000,0.200,583.000,0.300,363.000,0.500,434.000,1.000,168.000,5.000,0
"04/02/08","12:08:25",18398.000,"cc",28354.092,6.00,6,0.100,16741.000,0.200,600.000,0.300,393.000,0.500,488.000,1.000,176.000,5.000,0
"04/02/08","12:08:31",19008.000,"cc",28252.801,6.00,6,0.100,17467.000,0.200,583.000,0.300,340.000,0.500,444.000,1.000,174.000,5.000,0
"04/02/08","12:08:37",18680.000,"cc",28319.941,6.00,6,0.100,17132.000,0.200,579.000,0.300,367.000,0.500,426.000,1.000,176.000,5.000,0
"04/02/08","12:08:43",18365.000,"cc",28298.221,6.00,6,0.100,16746.000,0.200,582.000,0.300,388.000,0.500,470.000,1.000,179.000,5.000,0
"04/02/08","12:08:49",18456.000,"cc",28342.227,6.00,6,0.100,16812.000,0.200,638.000,0.300,353.000,0.500,458.000,1.000,195.000,5.000,0
"04/02/08","12:08:55",18286.000,"cc",28324.721,6.00,6,0.100,16591.000,0.200,641.000,0.300,395.000,0.500,463.000,1.000,196.000,5.000,0
"04/02/08","12:09:01",18018.000,"cc",28300.434,6.00,6,0.100,16458.000,0.200,552.000,0.300,394.000,0.500,430.000,1.000,184.000,5.000,0
"04/02/08","12:09:07",17751.000,"cc",28350.922,6.00,6,0.100,16275.000,0.200,547.000,0.300,333.000,0.500,448.000,1.000,148.000,5.000,0
"04/02/08","12:09:13",17861.000,"cc",28302.832,6.00,6,0.100,16255.000,0.200,630.000,0.300,352.000,0.500,442.000,1.000,182.000,5.000,0
"04/02/08","12:09:19",18067.000,"cc",28342.035,6.00,6,0.100,16421.000,0.200,597.000,0.300,369.000,0.500,487.000,1.000,193.000,5.000,0
"04/02/08","12:09:25",17983.000,"cc",28312.027,6.00,6,0.100,16411.000,0.200,636.000,0.300,339.000,0.500,421.000,1.000,176.000,5.000,0
"04/02/08","12:09:31",17930.000,"cc",28241.188,6.00,6,0.100,16306.000,0.200,608.000,0.300,393.000,0.500,456.000,1.000,167.000,5.000,0
"04/02/08","12:09:37",18146.000,"cc",28344.971,6.00,6,0.100,16342.000,0.200,642.000,0.300,436.000,0.500,520.000,1.000,206.000,5.000,0
"04/02/08","12:09:43",18353.000,"cc",28374.580,6.00,6,0.100,16600.000,0.200,671.000,0.300,388.000,0.500,496.000,1.000,198.000,5.000,0
"04/02/08","12:09:49",18165.000,"cc",28268.891,6.00,6,0.100,16554.000,0.200,594.000,0.300,365.000,0.500,463.000,1.000,189.000,5.000,0
"04/02/08","12:09:55",18236.000,"cc",28290.525,6.00,6,0.100,16815.000,0.200,554.000,0.300,327.000,0.500,395.000,1.000,145.000,5.000,0
"04/02/08","12:10:01",18363.000,"cc",28378.414,6.00,6,0.100,16830.000,0.200,542.000,0.300,353.000,0.500,489.000,1.000,149.000,5.000,0
"04/02/08","12:10:07",17934.000,"cc",28272.793,6.00,6,0.100,16435.000,0.200,580.000,0.300,335.000,0.500,427.000,1.000,157.000,5.000,0
"04/02/08","12:10:13",18154.000,"cc",28323.613,6.00,6,0.100,16590.000,0.200,569.000,0.300,360.000,0.500,455.000,1.000,180.000,5.000,0
"04/02/08","12:10:19",18454.000,"cc",28375.279,6.00,6,0.100,16983.000,0.200,561.000,0.300,346.000,0.500,421.000,1.000,143.000,5.000,0
"04/02/08","12:10:25",18185.000,"cc",28352.734,6.00,6,0.100,16639.000,0.200,571.000,0.300,344.000,0.500,463.000,1.000,168.000,5.000,0
"04/02/08","12:10:31",17987.000,"cc",28271.479,6.00,6,0.100,16452.000,0.200,602.000,0.300,338.000,0.500,427.000,1.000,168.000,5.000,0
"04/02/08","12:10:37",18477.000,"cc",28283.828,6.00,6,0.100,17041.000,0.200,553.000,0.300,310.000,0.500,404.000,1.000,169.000,5.000,0
"04/02/08","12:10:43",18221.000,"cc",28330.154,6.00,6,0.100,16668.000,0.200,588.000,0.300,359.000,0.500,431.000,1.000,175.000,5.000,0
"04/02/08","12:10:49",18079.000,"cc",28337.869,6.00,6,0.100,16470.000,0.200,591.000,0.300,386.000,0.500,464.000,1.000,168.000,5.000,0
"04/02/08","12:10:55",18236.000,"cc",28356.680,6.00,6,0.100,16678.000,0.200,607.000,0.300,355.000,0.500,442.000,1.000,154.000,5.000,0
"04/02/08","12:11:01",18454.000,"cc",28311.816,6.00,6,0.100,16867.000,0.200,618.000,0.300,338.000,0.500,451.000,1.000,180.000,5.000,0
"04/02/08","12:11:07",18412.000,"cc",28291.158,6.00,6,0.100,16787.000,0.200,627.000,0.300,351.000,0.500,458.000,1.000,189.000,5.000,0
"04/02/08","12:11:13",18614.000,"cc",28280.283,6.00,6,0.100,17051.000,0.200,587.000,0.300,354.000,0.500,437.000,1.000,185.000,5.000,0
"04/02/08","12:11:19",18798.000,"cc",28289.404,6.00,6,0.100,17194.000,0.200,652.000,0.300,354.000,0.500,421.000,1.000,177.000,5.000,0
"04/02/08","12:11:25",18408.000,"cc",28294.041,6.00,6,0.100,16904.000,0.200,575.000,0.300,349.000,0.500,413.000,1.000,167.000,5.000,0
"04/02/08","12:11:31",17953.000,"cc",28303.621,6.00,6,0.100,16582.000,0.200,521.000,0.300,303.000,0.500,378.000,1.000,169.000,5.000,0
"04/02/08","12:11:37",18341.000,"cc",28434.727,6.00,6,0.100,16867.000,0.200,576.000,0.300,336.000,0.500,408.000,1.000,154.000,5.000,0
"04/02/08","12:11:43",18044.000,"cc",28278.760,6.00,6,0.100,16521.000,0.200,593.000,0.300,323.000,0.500,432.000,1.000,175.000,5.000,0
"04/02/08","12:11:49",18207.000,"cc",28291.303,6.00,6,0.100,16718.000,0.200,525.000,0.300,347.000,0.500,470.000,1.000,147.000,5.000,0
"04/02/08","12:11:55",18231.000,"cc",28306.941,6.00,6,0.100,16569.000,0.200,629.000,0.300,422.000,0.500,449.000,1.000,162.000,5.000,0
"04/02/08","12:12:01",18185.000,"cc",28321.719,6.00,6,0.100,16511.000,0.200,599.000,0.300,386.000,0.500,471.000,1.000,218.000,5.000,0
"04/02/08","12:12:07",17687.000,"cc",28336.484,6.00,6,0.100,16285.000,0.200,583.000,0.300,287.000,0.500,401.000,1.000,131.000,5.000,0
"04/02/08","12:12:13",17753.000,"cc",28288.672,6.00,6,0.100,16225.000,0.200,600.000,0.300,344.000,0.500,433.000,1.000,151.000,5.000,0
"04/02/08","12:12:19",18059.000,"cc",28319.434,6.00,6,0.100,16608.000,0.200,573.000,0.300,320.000,0.500,371.000,1.000,187.000,5.000,0
"04/02/08","12:12:25",17747.000,"cc",28350.514,6.00,6,0.100,16351.000,0.200,546.000,0.300,301.000,0.500,406.000,1.000,143.000,5.000,0
"04/02/08","12:12:31",17472.000,"cc",28310.268,6.00,6,0.100,16214.000,0.200,519.000,0.300,270.000,0.500,321.000,1.000,148.000,5.000,0
"04/02/08","12:12:37",17621.000,"cc",28289.512,6.00,6,0.100,16277.000,0.200,522.000,0.300,288.000,0.500,382.000,1.000,152.000,5.000,0
"04/02/08","12:12:43",17624.000,"cc",28388.799,6.00,6,0.100,16226.000,0.200,540.000,0.300,311.000,0.500,394.000,1.000,153.000,5.000,0
"04/02/08","12:12:49",17529.000,"cc",28302.510,6.00,6,0.100,16054.000,0.200,564.000,0.300,324.000,0.500,401.000,1.000,186.000,5.000,0
"04/02/08","12:12:55",17624.000,"cc",28412.475,6.00,6,0.100,16134.000,0.200,560.000,0.300,349.000,0.500,428.000,1.000,153.000,5.000,0
"04/02/08","12:13:01",18185.000,"cc",28253.084,6.00,6,0.100,16478.000,0.200,628.000,0.300,413.000,0.500,480.000,1.000,186.000,5.000,0
"04/02/08","12:13:07",18261.000,"cc",28270.699,6.00,6,0.100,16465.000,0.200,661.000,0.300,424.000,0.500,512.000,1.000,199.000,5.000,0
"04/02/08","12:13:13",18353.000,"cc",28313.816,6.00,6,0.100,16589.000,0.200,626.000,0.300,422.000,0.500,523.000,1.000,193.000,5.000,0
"04/02/08","12:13:19",18334.000,"cc",28279.979,6.00,6,0.100,16694.000,0.200,603.000,0.300,370.000,0.500,455.000,1.000,212.000,5.000,0
"04/02/08","12:13:25",18253.000,"cc",28335.648,6.00,6,0.100,16703.000,0.200,547.000,0.300,375.000,0.500,446.000,1.000,182.000,5.000,0
"04/02/08","12:13:31",18857.000,"cc",28315.893,6.00,6,0.100,17245.000,0.200,613.000,0.300,366.000,0.500,447.000,1.000,186.000,5.000,0
"04/02/08","12:13:37",18938.000,"cc",28349.881,6.00,6,0.100,17319.000,0.200,593.000,0.300,355.000,0.500,491.000,1.000,180.000,5.000,0
"04/02/08","12:13:43",18457.000,"cc",28343.885,6.00,6,0.100,16819.000,0.200,593.000,0.300,396.000,0.500,465.000,1.000,184.000,5.000,0
"04/02/08","12:13:49",18659.000,"cc",28294.891,6.00,6,0.100,17018.000,0.200,671.000,0.300,379.000,0.500,417.000,1.000,174.000,5.000,0
"04/02/08","12:13:55",18423.000,"cc",28306.229,6.00,6,0.100,16743.000,0.200,653.000,0.300,365.000,0.500,491.000,1.000,171.000,5.000,0
"04/02/08","12:14:01",18863.000,"cc",28280.457,6.00,6,0.100,17129.000,0.200,643.000,0.300,366.000,0.500,517.000,1.000,208.000,5.000,0
"04/02/08","12:14:07",18841.000,"cc",28356.305,6.00,6,0.100,17201.000,0.200,587.000,0.300,363.000,0.500,510.000,1.000,180.000,5.000,0
"04/02/08","12:14:13",18860.000,"cc",28301.420,6.00,6,0.100,17316.000,0.200,613.000,0.300,338.000,0.500,421.000,1.000,172.000,5.000,0
"04/02/08","12:14:19",18974.000,"cc",28308.111,6.00,6,0.100,17399.000,0.200,579.000,0.300,334.000,0.500,470.000,1.000,192.000,5.000,0
"04/02/08","12:14:25",18739.000,"cc",28313.895,6.00,6,0.100,17132.000,0.200,577.000,0.300,384.000,0.500,470.000,1.000,176.000,5.000,0
"04/02/08","12:14:31",18828.000,"cc",28351.199,6.00,6,0.100,17186.000,0.200,591.000,0.300,408.000,0.500,463.000,1.000,180.000,5.000,0
"04/02/08","12:14:37",18570.000,"cc",28348.139,6.00,6,0.100,16855.000,0.200,614.000,0.300,368.000,0.500,546.000,1.000,187.000,5.000,0
"04/02/08","12:14:43",18809.000,"cc",28385.348,6.00,6,0.100,17155.000,0.200,614.000,0.300,371.000,0.500,487.000,1.000,182.000,5.000,0
"04/02/08","12:14:49",18653.000,"cc",28306.166,6.00,6,0.100,17011.000,0.200,607.000,0.300,367.000,0.500,496.000,1.000,172.000,5.000,0
"04/02/08","12:14:55",18357.000,"cc",28231.246,6.00,6,0.100,16753.000,0.200,585.000,0.300,352.000,0.500,472.000,1.000,195.000,5.000,0
"04/02/08","12:15:01",18427.000,"cc",28294.900,6.00,6,0.100,16746.000,0.200,642.000,0.300,364.000,0.500,474.000,1.000,201.000,5.000,0
"04/02/08","12:15:07",18321.000,"cc",28342.147,6.00,6,0.100,16571.000,0.200,619.000,0.300,382.000,0.500,513.000,1.000,236.000,5.000,0
"04/02/08","12:15:13",18491.000,"cc",28340.947,6.00,6,0.100,16820.000,0.200,639.000,0.300,369.000,0.500,486.000,1.000,177.000,5.000,0
"04/02/08","12:15:19",18419.000,"cc",28296.172,6.00,6,0.100,16685.000,0.200,643.000,0.300,387.000,0.500,514.000,1.000,190.000,5.000,0
"04/02/08","12:15:25",18292.000,"cc",28235.414,6.00,6,0.100,16581.000,0.200,607.000,0.300,415.000,0.500,488.000,1.000,201.000,5.000,0
"04/02/08","12:15:31",18333.000,"cc",28355.934,6.00,6,0.100,16653.000,0.200,627.000,0.300,402.000,0.500,464.000,1.000,187.000,5.000,0
"04/02/08","12:15:37",18530.000,"cc",28330.059,6.00,6,0.100,16705.000,0.200,652.000,0.300,402.000,0.500,566.000,1.000,205.000,5.000,0
"04/02/08","12:15:43",18084.000,"cc",28302.686,6.00,6,0.100,16317.000,0.200,624.000,0.300,440.000,0.500,497.000,1.000,206.000,5.000,0
"04/02/08","12:15:49",18129.000,"cc",28290.918,6.00,6,0.100,16433.000,0.200,620.000,0.300,382.000,0.500,485.000,1.000,209.000,5.000,0
"04/02/08","12:15:55",18047.000,"cc",28327.201,6.00,6,0.100,16415.000,0.200,557.000,0.300,410.000,0.500,468.000,1.000,197.000,5.000,0
"04/02/08","12:16:01",18176.000,"cc",28314.203,6.00,6,0.100,16422.000,0.200,643.000,0.300,398.000,0.500,517.000,1.000,196.000,5.000,0
"04/02/08","12:16:07",17966.000,"cc",28337.408,6.00,6,0.100,16486.000,0.200,549.000,0.300,328.000,0.500,444.000,1.000,159.000,5.000,0
"04/02/08","12:16:13",17970.000,"cc",28415.668,6.00,6,0.100,16413.000,0.200,535.000,0.300,366.000,0.500,470.000,1.000,186.000,5.000,0
"04/02/08","12:16:19",18169.000,"cc",28354.604,6.00,6,0.100,16426.000,0.200,639.000,0.300,391.000,0.500,479.000,1.000,234.000,5.000,0
"04/02/08","12:16:25",18239.000,"cc",28330.805,6.00,6,0.100,16532.000,0.200,608.000,0.300,409.000,0.500,506.000,1.000,184.000,5.000,0
"04/02/08","12:16:31",18537.000,"cc",28253.373,6.00,6,0.100,16986.000,0.200,547.000,0.300,368.000,0.500,452.000,1.000,184.000,5.000,0
"04/02/08","12:16:37",18758.000,"cc",28301.523,6.00,6,0.100,16984.000,0.200,646.000,0.300,411.000,0.500,508.000,1.000,209.000,5.000,0
"04/02/08","12:16:43",18346.000,"cc",28289.857,6.00,6,0.100,16560.000,0.200,643.000,0.300,438.000,0.500,524.000,1.000,181.000,5.000,0